[[{"header":{"parameterUnit":"m.s-1","parameterCategory":1,"la1":30.2991,"la2":30.254,"lo1":-89.0895,"lo2":-89.0444,"dy":0.0017,"dx":0.0017,"nx":28,"ny":28,"refTime":"2026-02-03T09:00:00:Z","depth":0,"parameterNumber":2,"parameterNumberName":"U-component_of_WINDS"},"data":[0,0,0,0,0,0,0,0,0,0,0,0,0,0,0,0,0,0,0,0,0,0,0,0,0,0,0,0,0,0,0,0,0,0,0,0,0,0,0,0,0,0,0,0,0,0,0,0,0,0,0,0,0,0,0,0,0,0,1.62,1.62,0,1.621,1.621,1.621,1.6205,1.6205,1.6205,1.6205,1.6213,1.6214,1.6214,0,0,0,0,0,0,0,0,0,0,0,0,0,1.6177,1.6178,1.62,1.62,1.62,1.621,1.621,1.621,1.6205,1.6205,1.6205,1.6205,1.6213,1.6214,1.6214,0,0,0,0,0,0,0,0,0,0,0,0,0,1.6187,1.6178,1.62,1.6199,1.6199,1.621,1.621,1.621,1.6205,1.6205,1.6205,1.6204,1.6213,1.6214,1.6214,1.6226,0,0,1.6216,1.6217,0,0,0,0,0,0,0,0,1.6187,1.6188,1.6199,1.6199,1.6199,1.6206,1.6205,1.6216,1.6206,1.6203,1.6205,1.6204,1.6211,1.6212,1.6214,1.6226,1.6227,1.6216,1.6217,1.6217,1.6217,0,0,0,0,0,0,0,1.6186,1.6188,1.6204,1.6199,1.6199,1.6198,1.6199,1.6207,1.6209,1.6203,1.6203,1.6204,1.6211,1.6214,1.6215,1.6227,1.6216,1.6217,1.6217,1.6218,1.6251,1.6251,0,0,0,0,0,0,1.6185,1.6187,1.6204,1.6204,1.6192,1.6199,1.62,1.6204,1.6209,1.6209,1.6205,1.6204,1.6213,1.6214,1.6215,1.623,1.6217,1.6218,1.6218,1.625,1.6251,1.6251,0,0,0,0,0,0,1.6185,1.6187,1.6203,1.6196,1.6198,1.62,1.6205,1.6205,1.6208,1.621,1.621,1.6207,1.6213,1.6214,1.6224,1.623,1.6218,1.6219,1.625,1.625,1.6251,1.6259,0,0,0,0,0,0,1.6184,1.6187,1.6191,1.6196,1.6198,1.6212,1.6205,1.6205,1.6209,1.6208,1.6212,1.6213,1.6212,1.6223,1.6224,1.6231,1.6219,1.6249,1.625,1.6251,1.6259,1.626,1.6262,0,0,0,0,0,1.6184,1.6192,1.6191,1.6193,1.6204,1.6212,1.6214,1.6214,1.6209,1.6214,1.6216,1.6213,1.6229,1.6224,1.6226,1.6232,1.6249,1.625,1.6251,1.6258,1.626,1.6262,0,0,0,0,0,0,1.6187,1.6193,1.6192,1.6202,1.6207,1.6211,1.6217,1.6216,1.6221,1.622,1.6219,1.622,1.6231,1.6233,1.6226,1.6245,1.6238,1.624,1.6243,1.6245,1.6247,1.6246,1.622,0,0,0,0,0,1.619,1.6196,1.6201,1.621,1.6212,1.6215,1.6218,1.6218,1.6223,1.6224,1.6227,1.6231,1.6238,1.6241,1.6247,1.6259,1.626,1.6265,1.6267,1.6268,1.6269,1.6277,1.6279,1.6255,1.6255,1.6255,0,0,1.6194,1.6198,1.6202,1.6211,1.6214,1.6222,1.6216,1.6223,1.6229,1.6225,1.6235,1.6237,1.6242,1.6253,1.6258,1.6255,1.6276,1.6269,1.627,1.6271,1.6278,1.628,1.6282,1.6256,1.6255,1.6255,0,0,1.6205,1.6209,1.6217,1.6222,1.6228,1.6229,1.6232,1.6237,1.6238,1.6248,1.6246,1.6253,1.6263,1.6267,1.6271,1.6287,1.6284,1.6289,1.6297,1.6304,1.6306,1.6308,1.6314,1.6316,1.629,1.629,1.629,0,1.621,1.6221,1.6222,1.623,1.6234,1.6233,1.6242,1.6246,1.6253,1.6256,1.6253,1.6268,1.627,1.6283,1.6287,1.629,1.6293,1.6288,1.6306,1.6307,1.6309,1.6315,1.6317,1.629,1.629,1.629,1.629,0,1.6226,1.6234,1.624,1.6249,1.6254,1.6262,1.6265,1.627,1.627,1.6272,1.6283,1.6287,1.6295,1.6298,1.6297,1.6311,1.6309,1.6306,1.6299,1.6312,1.6317,1.6319,1.6291,1.6291,1.6291,1.6291,0,0,1.6238,1.6249,1.6251,1.6256,1.6263,1.6269,1.6278,1.6287,1.6291,1.6297,1.6305,1.6315,1.6313,1.6317,1.6317,1.6324,1.6337,1.632,1.632,1.6323,1.6353,1.6355,1.6358,1.6336,1.6336,1.6336,1.6353,0,1.6251,1.6267,1.6269,1.6283,1.6291,1.6291,1.6299,1.6305,1.6308,1.6315,1.6318,1.6325,1.6321,1.6324,1.6331,1.6334,1.6343,1.6333,1.6343,1.6343,1.6341,1.6361,1.6362,1.6378,1.6355,1.6355,1.6355,0,1.6267,1.6274,1.6289,1.6298,1.6301,1.6308,1.6317,1.6323,1.633,1.6332,1.6338,1.6338,1.6348,1.6342,1.6356,1.6349,1.6353,1.6356,1.6356,1.6357,1.635,1.6361,1.6382,1.6384,1.6359,1.6358,1.6358,0,1.6275,1.6289,1.63,1.6304,1.6313,1.6318,1.6323,1.6329,1.6335,1.6342,1.6346,1.6354,1.6359,1.6365,1.6368,1.6363,1.6382,1.6376,1.6384,1.6384,1.6387,1.6387,1.6409,1.6391,1.6391,1.6391,1.639,0,1.6288,1.6297,1.6304,1.631,1.6322,1.6325,1.6335,1.6339,1.6346,1.6354,1.6354,1.6362,1.6365,1.6373,1.6375,1.6387,1.6389,1.6391,1.6391,1.639,1.639,1.6393,1.6392,1.6391,1.6391,1.6391,1.6391,0,1.6298,1.6303,1.6315,1.6324,1.6326,1.6334,1.6342,1.6349,1.6353,1.6363,1.6365,1.6371,1.6381,1.6384,1.6396,1.6398,1.6411,1.6411,1.6409,1.6409,1.6417,1.6416,1.6441,1.6445,1.6424,1.6424,1.6425,0,1.6306,1.6313,1.6323,1.6329,1.6334,1.6343,1.6349,1.6353,1.6359,1.6369,1.6375,1.6385,1.6393,1.6409,1.6414,1.6423,1.6423,1.6431,1.6424,1.6424,1.6423,1.6423,1.6424,1.6432,1.6432,1.6432,1.6433,0,1.6319,1.6322,1.633,1.6341,1.6348,1.6356,1.6364,1.6368,1.6374,1.6381,1.6391,1.6398,1.6411,1.6421,1.6431,1.6435,1.6435,1.6435,1.6437,1.6437,1.6435,1.6436,1.6412,1.6434,1.6434,1.6434,1.6434,1.6434,1.6329,1.6336,1.6345,1.6355,1.6361,1.6369,1.6376,1.6382,1.6391,1.6402,1.6404,1.6416,1.6424,1.6438,1.6443,1.6452,1.645,1.6453,1.6454,1.6455,1.6455,1.6435,1.6454,1.6454,1.6454,1.6454,1.6454,0,1.6342,1.6349,1.6358,1.637,1.6378,1.6378,1.6387,1.6394,1.6404,1.6413,1.6421,1.6434,1.6445,1.6451,1.6462,1.6468,1.6468,1.6471,1.647,1.6471,1.6456,1.6453,1.647,1.647,1.647,1.647,1.647,1.647,1.6351,1.6363,1.6367,1.6383,1.6389,1.6401,1.6406,1.6414,1.6421,1.6435,1.6444,1.6449,1.6457,1.6468,1.6478,1.648,1.6484,1.6487,1.6488,1.6474,1.6472,1.647,1.6468,1.6487,1.6487,1.6502,1.6502,1.6502]},{"header":{"parameterUnit":"m.s-1","parameterCategory":1,"la1":30.2991,"la2":30.254,"lo1":-89.0895,"lo2":-89.0444,"dy":0.0017,"dx":0.0017,"nx":28,"ny":28,"refTime":"2026-02-03T09:00:00:Z","depth":0,"parameterNumber":3,"parameterNumberName":"V-component_of_WINDS"},"data":[0,0,0,0,0,0,0,0,0,0,0,0,0,0,0,0,0,0,0,0,0,0,0,0,0,0,0,0,0,0,0,0,0,0,0,0,0,0,0,0,0,0,0,0,0,0,0,0,0,0,0,0,0,0,0,0,0,0,-7.7992,-7.7994,0,-7.813,-7.8131,-7.8133,-7.8051,-7.8047,-7.8044,-7.804,-7.8176,-7.8183,-7.819,0,0,0,0,0,0,0,0,0,0,0,0,0,-7.7654,-7.7661,-7.7992,-7.7994,-7.7995,-7.813,-7.8131,-7.8133,-7.8052,-7.8047,-7.8043,-7.8038,-7.8174,-7.8182,-7.8191,0,0,0,0,0,0,0,0,0,0,0,0,0,-7.7798,-7.7663,-7.7992,-7.7971,-7.7971,-7.8129,-7.8132,-7.8134,-7.8053,-7.8047,-7.8041,-7.8036,-7.8171,-7.8181,-7.8192,-7.8377,0,0,-7.8226,-7.823,0,0,0,0,0,0,0,0,-7.7789,-7.781,-7.7972,-7.7973,-7.7973,-7.8068,-7.8062,-7.8215,-7.8055,-7.8022,-7.804,-7.8033,-7.8144,-7.8157,-7.8196,-7.8384,-7.8389,-7.8227,-7.8233,-7.8238,-7.8241,0,0,0,0,0,0,0,-7.778,-7.7804,-7.8046,-7.7975,-7.7975,-7.7954,-7.7968,-7.8091,-7.8114,-7.8024,-7.8019,-7.8036,-7.8143,-7.8185,-7.8198,-7.8391,-7.8226,-7.8236,-7.8243,-7.8247,-7.8739,-7.8745,0,0,0,0,0,0,-7.7772,-7.7796,-7.8042,-7.805,-7.7865,-7.7965,-7.798,-7.8043,-7.8113,-7.8118,-7.8041,-7.8032,-7.817,-7.8186,-7.8203,-7.8425,-7.8238,-7.8248,-7.8254,-7.8732,-7.874,-7.8747,0,0,0,0,0,0,-7.7765,-7.7795,-7.8036,-7.7922,-7.7951,-7.7977,-7.8048,-7.8049,-7.8091,-7.8126,-7.8129,-7.808,-7.8166,-7.8187,-7.8335,-7.8428,-7.8253,-7.8263,-7.8725,-7.8735,-7.8744,-7.887,0,0,0,0,0,0,-7.7756,-7.7793,-7.7864,-7.7924,-7.7957,-7.8168,-7.8054,-7.8056,-7.811,-7.81,-7.8163,-7.8168,-7.8163,-7.8319,-7.8346,-7.844,-7.8271,-7.8716,-7.8729,-7.8741,-7.8858,-7.8883,-7.8905,0,0,0,0,0,-7.7744,-7.7893,-7.7868,-7.7898,-7.8048,-7.8174,-7.8192,-7.8185,-7.8118,-7.819,-7.8212,-7.8166,-7.8414,-7.8335,-7.8364,-7.8463,-7.871,-7.8726,-7.874,-7.8847,-7.8878,-7.8904,0,0,0,0,0,0,-7.7841,-7.79,-7.7873,-7.8046,-7.8106,-7.816,-7.8249,-7.8218,-7.8296,-7.8282,-7.8268,-7.8283,-7.8437,-7.8465,-7.8376,-7.8647,-7.8552,-7.8573,-7.8623,-7.8653,-7.8676,-7.8666,-7.828,0,0,0,0,0,-7.7883,-7.7982,-7.8027,-7.8176,-7.8207,-7.8224,-7.8278,-7.8268,-7.8328,-7.8352,-7.8385,-7.8444,-7.8535,-7.8595,-7.8681,-7.8861,-7.8874,-7.8944,-7.8967,-7.8986,-7.9005,-7.9103,-7.9135,-7.8796,-7.8795,-7.8795,0,0,-7.797,-7.8014,-7.8077,-7.8196,-7.8241,-7.8343,-7.8245,-7.8356,-7.8432,-7.8368,-7.851,-7.8537,-7.8601,-7.8767,-7.8841,-7.8795,-7.9102,-7.9005,-7.902,-7.9028,-7.9122,-7.9154,-7.9183,-7.8805,-7.8804,-7.8802,0,0,-7.818,-7.8224,-7.8353,-7.84,-7.847,-7.8481,-7.8512,-7.8571,-7.8587,-7.873,-7.8685,-7.8773,-7.893,-7.8979,-7.9024,-7.9255,-7.9215,-7.9283,-7.9406,-7.9502,-7.9528,-7.9552,-7.9635,-7.9665,-7.9301,-7.9301,-7.9302,0,-7.8279,-7.8432,-7.8423,-7.8539,-7.8593,-7.8542,-7.8672,-7.8718,-7.8812,-7.8849,-7.8796,-7.8994,-7.9033,-7.921,-7.9267,-7.9305,-7.934,-7.9276,-7.9526,-7.9549,-7.9571,-7.965,-7.9682,-7.9309,-7.9308,-7.9308,-7.9307,0,-7.855,-7.8657,-7.8753,-7.8847,-7.8912,-7.9034,-7.9043,-7.9109,-7.9093,-7.9108,-7.9255,-7.9301,-7.9396,-7.9437,-7.9421,-7.9612,-7.9581,-7.9527,-7.9431,-7.9612,-7.9686,-7.9716,-7.9321,-7.9318,-7.9315,-7.9313,0,0,-7.8825,-7.8915,-7.895,-7.8993,-7.9067,-7.9149,-7.9268,-7.9363,-7.9421,-7.9487,-7.9587,-7.9722,-7.9674,-7.9725,-7.9714,-7.9799,-7.998,-7.9735,-7.9736,-7.9779,-8.0194,-8.0235,-8.027,-7.9954,-7.996,-7.9964,-8.0189,0,-7.9041,-7.9253,-7.9249,-7.9445,-7.9544,-7.9498,-7.9603,-7.9659,-7.9677,-7.9762,-7.9781,-7.9878,-7.9806,-7.9837,-7.9918,-7.9941,-8.0063,-7.9924,-8.0047,-8.0051,-8.0033,-8.0308,-8.0352,-8.0561,-8.0217,-8.0222,-8.0226,0,-7.9322,-7.94,-7.9607,-7.9668,-7.9709,-7.9804,-7.9891,-7.9974,-8.0036,-8.0043,-8.0102,-8.0079,-8.02,-8.0101,-8.0267,-8.0173,-8.0222,-8.0241,-8.0249,-8.0261,-8.015,-8.0328,-8.0627,-8.0659,-8.0271,-8.0268,-8.0264,0,-7.9503,-7.966,-7.9804,-7.9842,-7.9917,-7.9984,-8.0018,-8.0075,-8.0133,-8.0209,-8.0246,-8.0334,-8.0382,-8.0451,-8.0451,-8.0379,-8.062,-8.052,-8.0629,-8.0629,-8.0682,-8.0679,-8.0994,-8.0713,-8.0713,-8.0712,-8.0711,0,-7.9745,-7.9874,-7.9887,-7.9976,-8.0119,-8.0112,-8.0253,-8.028,-8.0332,-8.0425,-8.0389,-8.0476,-8.0472,-8.056,-8.0561,-8.0699,-8.0721,-8.0729,-8.0728,-8.0733,-8.0732,-8.0766,-8.0752,-8.072,-8.0718,-8.0717,-8.0715,0,-7.9972,-7.9986,-8.0141,-8.0199,-8.0217,-8.032,-8.0369,-8.0453,-8.0469,-8.0587,-8.0614,-8.0637,-8.074,-8.0747,-8.0865,-8.0865,-8.1033,-8.1016,-8.1013,-8.101,-8.1119,-8.1109,-8.1467,-8.1514,-8.1202,-8.1205,-8.1207,0,-8.0126,-8.0224,-8.0294,-8.0355,-8.0393,-8.0491,-8.055,-8.0547,-8.0611,-8.0691,-8.0765,-8.0865,-8.0944,-8.1109,-8.1136,-8.1226,-8.1211,-8.133,-8.1224,-8.1226,-8.1214,-8.1208,-8.1218,-8.1351,-8.1354,-8.1357,-8.136,0,-8.0398,-8.04,-8.0488,-8.058,-8.0653,-8.0724,-8.0791,-8.0842,-8.0847,-8.092,-8.1025,-8.1087,-8.1209,-8.1308,-8.1396,-8.1429,-8.1396,-8.1393,-8.1423,-8.1429,-8.1424,-8.143,-8.107,-8.1385,-8.1382,-8.138,-8.1379,-8.1378,-8.0593,-8.0679,-8.0743,-8.0842,-8.0893,-8.0956,-8.1039,-8.1065,-8.1154,-8.1254,-8.1246,-8.1364,-8.1424,-8.154,-8.158,-8.167,-8.163,-8.1673,-8.1684,-8.1695,-8.1707,-8.141,-8.1686,-8.1685,-8.1685,-8.1684,-8.1684,0,-8.0864,-8.0903,-8.0995,-8.1091,-8.117,-8.1133,-8.1205,-8.1273,-8.1377,-8.1437,-8.1517,-8.1639,-8.1735,-8.177,-8.1864,-8.1929,-8.1917,-8.1954,-8.1949,-8.1958,-8.1737,-8.1703,-8.1963,-8.1963,-8.1963,-8.1963,-8.1963,-8.1963,-8.1015,-8.1159,-8.1169,-8.1337,-8.1375,-8.1491,-8.1535,-8.1594,-8.1642,-8.178,-8.1861,-8.1884,-8.1934,-8.2031,-8.2118,-8.2125,-8.2162,-8.2206,-8.2208,-8.2001,-8.1973,-8.1946,-8.1914,-8.2214,-8.2215,-8.2421,-8.2423,-8.2424]}]]